"Pseudo-MPEC" for ST25G03

Created 2025 Jul 7 16:35:12 UT using Find_Orb

Click here for an explanation of pseudo-MPECs

 
 Astrometry: 
     ST25G03* C2025 07 02.32319418 44 24.270+23 44 02.73   ~72H5 20.0 GVNEOCPU68
     ST25G03  C2025 07 02.32697318 44 27.517+23 45 07.06   ~72H5 20.0 GVNEOCPU68
     ST25G03  C2025 07 02.34345718 44 41.816+23 49 47.12   ~72H5 20.1 GVNEOCPU68
     ST25G03  C2025 07 02.34723618 44 45.094+23 50 51.27   ~72H5 20.1 GVNEOCPU68

Station data:
(U68) JPL SynTrack Robotic Telescope, Auberry  (N37.070387 W119.412990)
   US/California.  Observers N. Saini, C. Zhai, R. Trahan, M. Zhan, M. Shao.
   0.28-m f/2.2 Schmidt + CCD.

Orbital elements:  ST25G03
   Perihelion 2025 Jul 23.97324 +/- 29.1 TT = 23:21:28 (JD 2460880.47324)
Epoch 2025 Jul  2.0 TT = JDT 2460858.5   Earth MOID: 0.0362      AutoNEOCP
M 349.36306851 +/- 15               (J2000 ecliptic)
n   0.48408564 +/- 0.319            Peri.   38.96631 +/- 90
a   1.60640327 +/- 0.706            Node   265.46528 +/- 70
e   0.3663241 +/- 0.263             Incl.    5.62299 +/- 7
P   2.036/743.656d         H 25.71  G  0.15   U 12.0  SR
q 1.01793889 +/- 0.0888    Q 2.19486766 +/- 41.9
From 4 observations 2025 July 2 (34.6 min); mean residual 0".09
Residuals in arcseconds: 
250702 U68  .16+  .01+    250702 U68  .02+  .04-    
250702 U68  .19-  .00     250702 U68  .02+  .03+    

Ephemerides (geocentric):
Date (UTC) HH   RA             Dec           delta  r     elong  mag " sig PA
---- --------  ------------   ------------  ------ ------ -----  --- --------
2025 07 07 17  20 25 29.145   +44 51 15.35  .04114 1.0316 110.3 21.2  48d  67
2025 07 07 18  20 26 20.938   +44 58 08.67  .04121 1.0315 110.1 21.2  48d  67
2025 07 07 19  20 27 12.753   +45 04 58.99  .04129 1.0315 110.0 21.2  48d  67
2025 07 07 20  20 28 04.588   +45 11 46.30  .04136 1.0314 109.8 21.2  48d  67
2025 07 07 21  20 28 56.441   +45 18 30.62  .04143 1.0313 109.7 21.3  48d  67
2025 07 07 22  20 29 48.310   +45 25 11.94  .04151 1.0312 109.6 21.3  48d  67
2025 07 07 23  20 30 40.196   +45 31 50.28  .04158 1.0312 109.4 21.3  48d  67
2025 07 08 00  20 31 32.095   +45 38 25.64  .04166 1.0311 109.3 21.3  47d  67
2025 07 08 01  20 32 24.006   +45 44 58.02  .04173 1.0310 109.1 21.3  47d  67
2025 07 08 02  20 33 15.929   +45 51 27.42  .04181 1.0310 109.0 21.3  47d  67
2025 07 08 03  20 34 07.861   +45 57 53.86  .04189 1.0309 108.9 21.3  47d  67
2025 07 08 04  20 34 59.801   +46 04 17.34  .04196 1.0308 108.7 21.3  47d  66
2025 07 08 05  20 35 51.747   +46 10 37.86  .04204 1.0308 108.6 21.3  47d  66
2025 07 08 06  20 36 43.698   +46 16 55.44  .04212 1.0307 108.5 21.3  47d  66
2025 07 08 07  20 37 35.653   +46 23 10.07  .04220 1.0306 108.3 21.3  47d  66
2025 07 08 08  20 38 27.609   +46 29 21.77  .04228 1.0306 108.2 21.3  47d  66
2025 07 08 09  20 39 19.566   +46 35 30.55  .04235 1.0305 108.0 21.4  47d  66
2025 07 08 10  20 40 11.522   +46 41 36.40  .04243 1.0304 107.9 21.4  47d  66
2025 07 08 11  20 41 03.476   +46 47 39.34  .04251 1.0304 107.8 21.4  47d  66
2025 07 08 12  20 41 55.425   +46 53 39.38  .04259 1.0303 107.6 21.4  47d  66
2025 07 08 13  20 42 47.369   +46 59 36.52  .04267 1.0302 107.5 21.4  47d  66
2025 07 08 14  20 43 39.305   +47 05 30.77  .04276 1.0302 107.4 21.4  47d  66
2025 07 08 15  20 44 31.233   +47 11 22.14  .04284 1.0301 107.2 21.4  47d  66
2025 07 08 16  20 45 23.151   +47 17 10.63  .04292 1.0300 107.1 21.4  47d  66
2025 07 08 17  20 46 15.058   +47 22 56.27  .04300 1.0300 107.0 21.4  47d  65
2025 07 08 18  20 47 06.951   +47 28 39.05  .04308 1.0299 106.9 21.4  47d  65
2025 07 08 19  20 47 58.830   +47 34 18.99  .04317 1.0299 106.7 21.4  47d  65
2025 07 08 20  20 48 50.692   +47 39 56.09  .04325 1.0298 106.6 21.4  47d  65
2025 07 08 21  20 49 42.538   +47 45 30.36  .04333 1.0297 106.5 21.4  47d  65
2025 07 08 22  20 50 34.364   +47 51 01.82  .04342 1.0297 106.4 21.5  46d  65
2025 07 08 23  20 51 26.170   +47 56 30.48  .04350 1.0296 106.2 21.5  46d  65
2025 07 09 00  20 52 17.954   +48 01 56.33  .04359 1.0295 106.1 21.5  46d  65
2025 07 09 01  20 53 09.714   +48 07 19.40  .04367 1.0295 106.0 21.5  46d  65
2025 07 09 02  20 54 01.450   +48 12 39.69  .04376 1.0294 105.9 21.5  46d  65
2025 07 09 03  20 54 53.160   +48 17 57.22  .04384 1.0293 105.7 21.5  46d  65
2025 07 09 04  20 55 44.841   +48 23 11.99  .04393 1.0293 105.6 21.5  46d  65
2025 07 09 05  20 56 36.494   +48 28 24.02  .04402 1.0292 105.5 21.5  46d  65
2025 07 09 06  20 57 28.115   +48 33 33.32  .04410 1.0291 105.4 21.5  46d  64
2025 07 09 07  20 58 19.705   +48 38 39.89  .04419 1.0291 105.2 21.5  46d  64
2025 07 09 08  20 59 11.262   +48 43 43.75  .04428 1.0290 105.1 21.5  46d  64
2025 07 09 09  21 00 02.783   +48 48 44.91  .04437 1.0290 105.0 21.5  46d  64
2025 07 09 10  21 00 54.268   +48 53 43.39  .04445 1.0289 104.9 21.6  46d  64
2025 07 09 11  21 01 45.715   +48 58 39.18  .04454 1.0288 104.8 21.6  46d  64
2025 07 09 12  21 02 37.123   +49 03 32.32  .04463 1.0288 104.7 21.6  46d  64
2025 07 09 13  21 03 28.491   +49 08 22.79  .04472 1.0287 104.5 21.6  46d  64
2025 07 09 14  21 04 19.816   +49 13 10.63  .04481 1.0286 104.4 21.6  46d  64
2025 07 09 15  21 05 11.099   +49 17 55.84  .04490 1.0286 104.3 21.6  46d  64
2025 07 09 16  21 06 02.336   +49 22 38.43  .04499 1.0285 104.2 21.6  46d  64